Location: Ergnies
(50.0854°N, 2.0375°E)
Time: 20:24:31
(UTC+00:00)

Cosmos 1758 - Pass Details

Date: 14 January 2026
Orbit: 479 x 500 km, 82.5° (Epoch: 13 February)

Event Time Altitude Azimuth Distance (km) Brightness Sun altitude
Rises 07:01:24 0° 224° (SW) 2,583 6.6 -7.0°
Reaches altitude 10° 07:03:55 10° 241° (WSW) 1,701 5.5 -6.7°
Maximum altitude 07:06:47 21° 291° (WNW) 1,181 4.4 -6.2°
Drops below altitude 10° 07:09:38 10° 342° (NNW) 1,702 5.4 -5.8°
Sets 07:12:10 0° 359° (N) 2,586 6.5 -5.5°
